カタログに戻る

STARLINK-32944

運用中通信VLEO
NORAD 63022·PAYLOAD·🇺🇸 United States

打ち上げ Feb 15, 2025 から Cape Canaveral Space Force Station

Loading…

次のパス (今後24時間)

TLE

最新Source: CelesTrak SupGP

元期: Sep 14, 2026, 22:44 UTC

1 63022C 25032T   26257.94770833 -.00023101  00000+0 -83670-3 0  2570
2 63022  43.0037 347.6382 0001538 268.1578 312.5179 15.27589983    15

AllMySatでSTARLINK-32944をリアルタイム追跡

Download on the App Store